Regional Weather Roundup
Issued by NWS

Home | Current Version | Previous Version | Text Only | Print | Product List | Glossary Off
Versions: 1 2 3 4 5 6 7 8 9 10 11 12 13 14 15 16 17 18 19 20 21 22 23 24 25 26 27

000
ASUS45 KCYS 250710
RWRWY

WYOMING REGIONAL WEATHER ROUNDUP
NATIONAL WEATHER SERVICE CHEYENNE WY
100 AM MDT SUN SEP 25 2016

NOTE:  "FAIR" INDICATES FEW OR NO CLOUDS BELOW 12,000 FEET
WITH NO SIGNIFICANT WEATHER AND/OR OBSTRUCTIONS TO VISIBILITY.

WYZ001-250800-
YELLOWSTONE NATIONAL PARK

CITY           SKY/WX    TMP DP  RH WIND       PRES   REMARKS
LK YELLOWSTONE   N/A     28  28 100 CALM      30.46R
W YELLOWSTONE  NOT AVBL

$$
WYZ002>013-054>058-071-098>099-250800-
NORTHERN WYOMING

CITY           SKY/WX    TMP DP  RH WIND       PRES   REMARKS
JACKSON        FAIR      36  36 100 N6        30.43R WCI  31
CODY           FAIR      43  39  86 SW5       30.35S
GREYBULL       FAIR      46  44  93 CALM      30.31S
WORLAND        FAIR      43  41  93 SW7       30.31S
SHERIDAN       CLOUDY    50  43  77 W13       30.28R
BUFFALO        MOCLDY    47  40  76 NW13      30.29R
GILLETTE       MOCLDY    45  44  97 W14       30.25R
HULETT         CLOUDY    46  43  87 W12G21    30.21R
NEWCASTLE      CLOUDY    45  41  87 NW22      30.23R

$$
WYZ014>020-022>026-101>103-250800-
CENTRAL WYOMING

CITY           SKY/WX    TMP DP  RH WIND       PRES   REMARKS
BIG PINEY      FAIR      33  30  88 NW7       30.44R WCI  27
PINEDALE       PTSUNNY   32  32 100 E7        30.43S WCI  26
DUBOIS         FAIR      41  28  60 W13       30.40S
LANDER         FAIR      41  35  79 SW3       30.37R
RIVERTON       MOCLDY    44  39  82 W9        30.38R
CASPER         FAIR      41  36  82 SW8       30.34R
DOUGLAS        CLOUDY    46  38  73 NW16      30.32R

$$
WYZ021-027>030-104>119-250800-
SOUTHERN WYOMING

CITY           SKY/WX    TMP DP  RH WIND       PRES   REMARKS
EVANSTON       FAIR      40  31  70 SE6       30.47S
FORT BRIDGER   FAIR      41  34  75 W9        30.49R
ROCK SPRINGS   FAIR      37  34  89 W8        30.44R WCI  31
DIXON          CLOUDY    40  38  93 CALM      30.46R
RAWLINS        CLOUDY    39  36  89 SW6       30.42S WCI  35
SARATOGA       CLOUDY    39  39 100 SW6       30.44R WCI  35
LARAMIE        FAIR      37  32  82 W10       30.38R WCI  30
CHEYENNE       FAIR      44  34  67 W10       30.33R
TORRINGTON     FAIR      45  39  79 NW7       30.25F
PINE BLUFFS    FAIR      45  36  70 NW14G21   30.30S

$$




USA.gov is the U.S. government's official web portal to all federal, state and local government web resources and services.